Weather History for KCNK - January, 2014

Change the Weather History Date:

Friday, January 31, 2014

  Actual Average Record
Temperature  
Mean Temperature 21 °F 29 °F  
Max Temperature 26 °F 40 °F 74 °F (1989)
Min Temperature 16 °F 19 °F -14 °F (1918)
Degree Days  
Heating Degree Days 44 36  
Month to date heating degree days 1178 1130  
Since 1 July heating degree days 3405 3304  
Cooling Degree Days 0 0  
Month to date cooling degree days 0 0  
Year to date cooling degree days 0 0  
Moisture  
Dew Point 15 °F    
Average Humidity 71    
Maximum Humidity 92    
Minimum Humidity 50    
Precipitation  
Precipitation 0.22 in 0.03 in 0.94 in (2015)
Month to date precipitation 0.43 0.58  
Year to date precipitation 0.43 0.58  
Snow  
Snow 3.60 in 0.20 in 3.60 in (2014)
Month to date snowfall 5.6 5.7  
Year to date snowfall 5.6 5.7  
Since 1 July snowfall 11.9 12.2  
Snow Depth 3.00 in    
Sea Level Pressure  
Sea Level Pressure 30.02 in    
Wind  
Wind Speed 11 mph (NE)    
Max Wind Speed 21 mph    
Max Gust Speed 25 mph    
Visibility 4 miles    
Events Fog , Snow    
T = Trace of Precipitation, MM = Missing Value Source: NWS Daily Summary

Daily Weather History Graph

Daily Weather History Graph

Search for Another Location

Airport or City:

Trip Planner

Search our weather history database for the weather conditions in past years. The results will help you decide how hot, cold, wet, or windy it might be!

Date:

Astronomy

Jan. 31, 2014 Rise Set
Actual Time 7:39 AM CST 5:49 PM CST
Civil Twilight 7:10 AM CST 6:18 PM CST
Nautical Twilight 6:38 AM CST 6:50 PM CST
Astronomical Twilight 6:06 AM CST 7:21 PM CST
Moon 7:50 AM CST (1/31) 7:14 PM CST (1/31)
Length of Visible Light 11h 07m
Length of Day
10h 10m
New Moon, 1% of the Moon is Illuminated
Jan 31
New Moon
Feb 6
First Quarter
Feb 14
Full
Feb 22
Last Quarter
Mar 1
New

Hourly Weather History & Observations

Time (CST) Temp. Windchill Dew Point Humidity Pressure Visibility Wind Dir Wind Speed Gust Speed Precip Events Conditions
12:55 AM 25.0 °F 11.3 °F 10.9 °F 55% 30.02 in 10.0 mi NE 18.4 mph 24.2 mph 0.00 in   Overcast
1:55 AM 24.1 °F 12.5 °F 8.1 °F 51% 30.04 in 10.0 mi NE 12.7 mph - N/A   Overcast
2:55 AM 21.0 °F 7.6 °F 12.9 °F 71% 30.04 in 6.0 mi NE 15.0 mph - 0.00 in Snow Light Snow
3:12 AM 21.0 °F 7.6 °F 15.1 °F 78% 29.98 in 2.5 mi NE 15.0 mph - 0.00 in Snow Light Snow
3:19 AM 19.9 °F 4.8 °F 15.1 °F 81% 29.98 in 3.0 mi NE 18.4 mph - 0.00 in Snow Light Snow
3:23 AM 19.9 °F 5.7 °F 15.1 °F 81% 29.98 in 2.0 mi NE 16.1 mph - 0.00 in Snow Light Snow
3:28 AM 19.9 °F 5.2 °F 15.1 °F 81% 29.99 in 1.5 mi NE 17.3 mph - 0.00 in Snow Light Snow
3:44 AM 19.9 °F 4.8 °F 16.0 °F 85% 29.99 in 1.8 mi NE 18.4 mph 23.0 mph 0.01 in Snow Light Snow
3:53 AM 19.4 °F 5.0 °F 15.8 °F 86% 29.99 in 2.5 mi ENE 16.1 mph - 0.01 in Snow Light Snow
3:55 AM 19.0 °F 6.1 °F 16.0 °F 88% 30.04 in 2.5 mi NE 12.7 mph - 0.01 in Snow Light Snow
4:24 AM 19.0 °F 5.6 °F 16.0 °F 88% 30.00 in 4.0 mi NE 13.8 mph - 0.00 in Snow Light Snow
4:55 AM 19.0 °F 4.5 °F 15.1 °F 85% 30.05 in 4.0 mi NE 16.1 mph - 0.00 in Snow Light Snow
5:08 AM 19.0 °F 6.1 °F 15.1 °F 85% 30.01 in 2.5 mi ENE 12.7 mph - 0.01 in Snow Light Snow
5:18 AM 19.0 °F 6.1 °F 15.1 °F 85% 30.00 in 3.0 mi NE 12.7 mph - 0.01 in Snow Light Snow
5:25 AM 18.0 °F 5.4 °F 15.1 °F 88% 30.01 in 2.5 mi NE 11.5 mph - 0.01 in Snow Light Snow
5:32 AM 18.0 °F 5.4 °F 15.1 °F 88% 30.02 in 4.0 mi ENE 11.5 mph - 0.01 in Snow Light Snow
5:55 AM 18.0 °F 3.6 °F 15.1 °F 88% 30.07 in 4.0 mi NE 15.0 mph - 0.02 in Snow Light Snow
6:16 AM 18.0 °F 6.1 °F 15.1 °F 88% 30.02 in 2.0 mi NE 10.4 mph - 0.00 in Snow Light Snow
6:33 AM 18.0 °F 6.1 °F 15.1 °F 88% 30.03 in 1.5 mi NE 10.4 mph - 0.00 in Snow Light Snow
6:38 AM 18.0 °F 4.2 °F 15.1 °F 88% 30.03 in 1.2 mi NE 13.8 mph - 0.01 in Snow Light Snow
6:45 AM 18.0 °F 6.1 °F 15.1 °F 88% 30.03 in 1.2 mi NE 10.4 mph - 0.01 in Snow Light Snow
6:51 AM 17.6 °F 4.3 °F 15.8 °F 93% 30.03 in 1.8 mi NE 12.7 mph - 0.01 in Snow Light Snow
6:55 AM 17.1 °F 3.0 °F 15.1 °F 92% 30.09 in 2.0 mi NE 13.8 mph - 0.01 in Snow Light Snow
7:00 AM 17.1 °F 3.0 °F 15.1 °F 92% 30.04 in 1.8 mi NE 13.8 mph - 0.00 in Snow Light Snow
7:05 AM 17.1 °F 3.6 °F 15.1 °F 92% 30.04 in 1.2 mi NE 12.7 mph - 0.01 in Snow Light Snow
7:29 AM 17.1 °F 3.6 °F 15.1 °F 92% 30.03 in 1.8 mi NE 12.7 mph - 0.02 in Snow Light Snow
7:34 AM 17.1 °F 4.3 °F 14.0 °F 88% 30.04 in 2.0 mi NE 11.5 mph - 0.02 in Snow Light Snow
7:44 AM 17.1 °F 2.5 °F 14.0 °F 88% 30.05 in 1.8 mi NE 15.0 mph - 0.02 in Snow Light Snow
7:55 AM 17.1 °F 3.6 °F 14.0 °F 88% 30.10 in 1.8 mi NE 12.7 mph - 0.02 in Snow Light Snow
7:59 AM 17.1 °F 4.3 °F 14.0 °F 88% 30.04 in 1.2 mi NE 11.5 mph - 0.00 in Snow Light Snow
8:08 AM 17.1 °F 3.6 °F 14.0 °F 88% 30.05 in 0.5 mi NE 12.7 mph - 0.01 in Fog , Snow Snow
8:43 AM 16.0 °F 2.9 °F 14.0 °F 92% 30.06 in 1.2 mi ENE 11.5 mph - 0.03 in Snow Light Snow
8:51 AM 15.8 °F 1.4 °F 14.0 °F 93% 30.06 in 1.5 mi ENE 13.8 mph - 0.03 in Snow Light Snow
8:55 AM 16.0 °F 1.7 °F 14.0 °F 92% 30.12 in 1.8 mi ENE 13.8 mph - 0.03 in Snow Light Snow
9:01 AM 16.0 °F 2.3 °F 12.9 °F 88% 30.06 in 3.0 mi ENE 12.7 mph 20.7 mph 0.00 in Snow Light Snow
9:12 AM 16.0 °F 3.6 °F 12.9 °F 88% 30.07 in 1.8 mi NE 10.4 mph - 0.00 in Snow Light Snow
9:20 AM 17.1 °F 3.6 °F 14.0 °F 88% 30.06 in 1.5 mi ENE 12.7 mph - 0.00 in Snow Light Snow
9:31 AM 17.1 °F 5.8 °F 14.0 °F 88% 30.06 in 1.0 mi ENE 9.2 mph - 0.00 in Snow Light Snow
9:46 AM 17.1 °F 3.0 °F 12.9 °F 84% 30.07 in 1.2 mi ENE 13.8 mph - 0.01 in Snow Light Snow
9:52 AM 15.8 °F 3.4 °F 12.2 °F 86% 30.07 in 1.5 mi ENE 10.4 mph - 0.01 in Snow Light Snow
9:55 AM 16.0 °F 3.6 °F 12.9 °F 88% 30.13 in 1.8 mi ENE 10.4 mph - 0.01 in Snow Light Snow
10:02 AM 17.1 °F 4.3 °F 14.0 °F 88% 30.07 in 2.5 mi NE 11.5 mph - 0.00 in Snow Light Snow
10:06 AM 16.0 °F 2.3 °F 12.9 °F 88% 30.07 in 3.0 mi NE 12.7 mph - 0.00 in Snow Light Snow
10:24 AM 17.1 °F 3.6 °F 12.9 °F 84% 30.08 in 5.0 mi NE 12.7 mph - 0.00 in Snow Light Snow
10:55 AM 18.0 °F 4.8 °F 12.9 °F 81% 30.12 in 5.0 mi ENE 12.7 mph - 0.00 in Snow Light Snow
11:55 AM 19.0 °F 6.8 °F 12.9 °F 77% 30.13 in 10.0 mi NE 11.5 mph - 0.00 in   Overcast
12:25 PM 19.9 °F 6.7 °F 14.0 °F 78% 30.05 in 10.0 mi NNE 13.8 mph - N/A   Overcast
12:32 PM 19.9 °F 7.9 °F 14.0 °F 78% 30.04 in 10.0 mi NE 11.5 mph - N/A   Overcast
12:55 PM 19.0 °F 6.8 °F 14.0 °F 81% 30.08 in 10.0 mi NNE 11.5 mph - N/A   Overcast
1:55 PM 19.9 °F 7.3 °F 15.1 °F 81% 30.03 in 10.0 mi NE 12.7 mph - N/A   Overcast
2:55 PM 21.0 °F 10.6 °F 15.1 °F 78% 30.02 in 10.0 mi NE 9.2 mph - N/A   Overcast
3:55 PM 21.0 °F 10.6 °F 15.1 °F 78% 30.03 in 10.0 mi ENE 9.2 mph - N/A   Clear
4:55 PM 19.9 °F 8.6 °F 15.1 °F 81% 29.99 in 10.0 mi ENE 10.4 mph - N/A   Clear
5:55 PM 19.9 °F 10.1 °F 15.1 °F 81% 29.99 in 10.0 mi NE 8.1 mph - N/A   Mostly Cloudy
6:55 PM 19.9 °F 10.1 °F 16.0 °F 85% 29.99 in 10.0 mi NE 8.1 mph - N/A   Overcast
7:55 PM 19.9 °F 11.1 °F 16.0 °F 85% 30.00 in 10.0 mi ENE 6.9 mph - N/A   Overcast
8:10 PM 19.9 °F 11.1 °F 16.0 °F 85% 29.92 in 10.0 mi NE 6.9 mph - N/A   Overcast
8:55 PM 19.9 °F 11.1 °F 17.1 °F 89% 29.99 in 10.0 mi ENE 6.9 mph - N/A   Overcast
9:08 PM 21.0 °F - 17.1 °F 85% 29.95 in 9.0 mi Calm Calm - N/A   Overcast
9:28 PM 19.9 °F 10.1 °F 17.1 °F 89% 29.91 in 1.8 mi ENE 8.1 mph - 0.00 in Snow Light Snow
9:31 PM 19.9 °F 10.1 °F 18.0 °F 92% 29.91 in 1.2 mi ENE 8.1 mph - 0.00 in Snow Light Snow
9:35 PM 19.9 °F 9.3 °F 18.0 °F 92% 29.90 in 0.8 mi ENE 9.2 mph - 0.01 in Snow Light Snow
9:55 PM 19.9 °F 13.4 °F 18.0 °F 92% 30.00 in 0.5 mi NE 4.6 mph - 0.03 in Fog , Snow Snow
10:03 PM 19.9 °F 11.1 °F 18.0 °F 92% 29.91 in 0.5 mi NE 6.9 mph - 0.01 in Fog , Snow Snow
10:34 PM 19.9 °F 11.1 °F 18.0 °F 92% 29.92 in 0.8 mi NE 6.9 mph - 0.05 in Snow Light Snow
10:42 PM 19.9 °F 11.1 °F 18.0 °F 92% 29.91 in 1.0 mi ENE 6.9 mph - 0.06 in Snow Light Snow
10:50 PM 19.4 °F 11.5 °F 17.6 °F 93% 29.92 in 1.0 mi NNE 5.8 mph - 0.06 in Snow Light Snow
10:55 PM 19.9 °F 13.4 °F 18.0 °F 92% 29.99 in 1.5 mi North 4.6 mph - 0.06 in Snow Light Snow
11:11 PM 19.9 °F 14.9 °F 18.0 °F 92% 29.92 in 1.8 mi NNE 3.5 mph - 0.01 in Snow Light Snow
11:18 PM 19.9 °F 12.1 °F 18.0 °F 92% 29.91 in 1.5 mi NNE 5.8 mph - 0.01 in Snow Light Snow
11:41 PM 19.9 °F 12.1 °F 18.0 °F 92% 29.93 in 1.0 mi North 5.8 mph - 0.02 in Snow Light Snow
11:55 PM 19.9 °F 13.4 °F 18.0 °F 92% 29.97 in 1.0 mi NE 4.6 mph - 0.03 in Snow Light Snow